,,,PA_Meas_PMT16A,,PR_Meas_QMR101_102,,RH_Meas_QMH101,,SR_Meas_QMS101,,TA_Meas_QMH101,,GenWind,,GenWind,
date,time,status,PA,status,PR,status,RH,status,SR,status,TA,status,DirAvg,status,SpdAvg,
2009-12-27, 00:00:05,VALID,1002.72,VALID,0,VALID,90.2268,VALID,0.100563,VALID,25.5707,VALID,341,VALID,0.524609,
2009-12-27, 00:01:05,VALID,1002.7,VALID,0,VALID,90.3259,VALID,0,VALID,25.5727,VALID,350,VALID,0.641016,
2009-12-27, 00:02:05,VALID,1002.71,VALID,0,VALID,90.509,VALID,0,VALID,25.5532,VALID,352,VALID,0.844531,
2009-12-27, 00:03:05,VALID,1002.74,VALID,0,VALID,90.6921,VALID,0,VALID,25.5337,VALID,335,VALID,0.482812,
2009-12-27, 00:04:05,VALID,1002.71,VALID,0,VALID,90.6235,VALID,0,VALID,25.5337,VALID,354,VALID,0.672656,
2009-12-27, 00:05:05,VALID,1002.71,VALID,0,VALID,90.7532,VALID,0,VALID,25.4734,VALID,340,VALID,0.537891,
2009-12-27, 00:06:05,VALID,1002.73,VALID,0,VALID,90.8752,VALID,0,VALID,25.5142,VALID,340,VALID,0.360938,
2009-12-27, 00:07:05,VALID,1002.75,VALID,0,VALID,90.8829,VALID,0,VALID,25.5337,VALID,341,VALID,0.669141,
2009-12-27, 00:08:05,VALID,1002.74,VALID,0,VALID,90.8523,VALID,0,VALID,25.5337,VALID,345,VALID,0.522266,
2009-12-27, 00:09:05,VALID,1002.72,VALID,0,VALID,90.8066,VALID,0,VALID,25.5513,VALID,345,VALID,0.507813,
2009-12-27, 00:10:05,VALID,1002.71,VALID,0,VALID,90.6235,VALID,0,VALID,25.5707,VALID,345,VALID,0.715625,
2009-12-27, 00:11:05,VALID,1002.68,VALID,0,VALID,90.5319,VALID,0,VALID,25.5902,VALID,329,VALID,0.2625,
2009-12-27, 00:12:05,VALID,1002.66,VALID,0,VALID,90.509,VALID,0,VALID,25.6097,VALID,5,VALID,0.601563,
2009-12-27, 00:13:05,VALID,1002.64,VALID,0,VALID,90.3031,VALID,0,VALID,25.6292,VALID,352,VALID,0.649219,
2009-12-27, 00:14:05,VALID,1002.64,VALID,0,VALID,90.1123,VALID,0,VALID,25.6486,VALID,349,VALID,0.569531,
2009-12-27, 00:15:05,VALID,1002.61,VALID,0,VALID,89.8301,VALID,0,VALID,25.709,VALID,347,VALID,0.569141,
2009-12-27, 00:16:05,VALID,1002.62,VALID,0,VALID,89.5783,VALID,0,VALID,25.7285,VALID,348,VALID,0.380078,
2009-12-27, 00:17:05,VALID,1002.61,VALID,0,VALID,89.4486,VALID,0,VALID,25.746,VALID,343,VALID,0.439063,
2009-12-27, 00:18:05,VALID,1002.58,VALID,0,VALID,89.2655,VALID,0,VALID,25.7869,VALID,347,VALID,0.576953,
2009-12-27, 00:19:05,VALID,1002.6,VALID,0,VALID,89.1664,VALID,0,VALID,25.8064,VALID,319,VALID,0.41875,
2009-12-27, 00:20:05,VALID,1002.56,VALID,0,VALID,89.0519,VALID,0,VALID,25.8259,VALID,328,VALID,0.453906,
2009-12-27, 00:21:05,VALID,1002.54,VALID,0,VALID,89.0367,VALID,0,VALID,25.8453,VALID,354,VALID,0.979297,
2009-12-27, 00:22:05,VALID,1002.53,VALID,0,VALID,88.9222,VALID,0,VALID,25.8044,VALID,11,VALID,0.517578,
2009-12-27, 00:23:05,VALID,1002.52,VALID,0,VALID,88.9146,VALID,0,VALID,25.785,VALID,11,VALID,0.23125,
2009-12-27, 00:24:05,VALID,1002.51,VALID,0,VALID,89.1435,VALID,0,VALID,25.748,VALID,11,VALID,0.379687,
2009-12-27, 00:25:05,VALID,1002.51,VALID,0,VALID,89.2198,VALID,0,VALID,25.748,VALID,11,VALID,0.2125,
2009-12-27, 00:26:05,VALID,1002.5,VALID,0,VALID,89.3952,VALID,0,VALID,25.6681,VALID,11,VALID,0.329688,
2009-12-27, 00:27:05,VALID,1002.49,VALID,0,VALID,89.5325,VALID,0,VALID,25.67,VALID,11,VALID,0.307031,
2009-12-27, 00:28:05,VALID,1002.53,VALID,0,VALID,89.6927,VALID,0,VALID,25.6116,VALID,11,VALID,0.175391,
2009-12-27, 00:29:05,VALID,1002.5,VALID,0,VALID,89.9064,VALID,0,VALID,25.5727,VALID,12,VALID,0.515625,
2009-12-27, 00:30:05,VALID,1002.51,VALID,0,VALID,90.0971,VALID,0,VALID,25.5318,VALID,12,VALID,0.362109,
2009-12-27, 00:31:05,VALID,1002.47,VALID,0,VALID,90.2191,VALID,0,VALID,25.4928,VALID,12,VALID,0.474219,
2009-12-27, 00:32:05,VALID,1002.48,VALID,0,VALID,90.4709,VALID,0,VALID,25.4948,VALID,12,VALID,0.352344,
2009-12-27, 00:33:05,VALID,1002.47,VALID,0,VALID,90.5853,VALID,0,VALID,25.4344,VALID,12,VALID,0.628516,
2009-12-27, 00:34:05,VALID,1002.44,VALID,0,VALID,90.7074,VALID,0,VALID,25.3974,VALID,12,VALID,0.388672,
2009-12-27, 00:35:05,VALID,1002.42,VALID,0,VALID,90.8829,VALID,0,VALID,25.337,VALID,12,VALID,0.523438,
2009-12-27, 00:36:05,VALID,1002.38,VALID,0,VALID,90.9439,VALID,0,VALID,25.3176,VALID,12,VALID,0.330469,
2009-12-27, 00:37:05,VALID,1002.32,VALID,0,VALID,90.9363,VALID,0,VALID,25.2397,VALID,12,VALID,0,
2009-12-27, 00:38:05,VALID,1002.3,VALID,0,VALID,91.4855,VALID,0,VALID,25.2806,VALID,15,VALID,0.890625,
2009-12-27, 00:39:05,VALID,1002.26,VALID,0,VALID,91.3787,VALID,0,VALID,25.3,VALID,1,VALID,0.300781,
2009-12-27, 00:40:05,VALID,1002.22,VALID,0,VALID,91.2262,VALID,0,VALID,25.2592,VALID,1,VALID,0.503125,
2009-12-27, 00:41:05,VALID,1002.22,VALID,0,VALID,91.4245,VALID,0,VALID,25.2397,VALID,16,VALID,0.6625,
2009-12-27, 00:42:05,VALID,1002.19,VALID,0,VALID,91.5618,VALID,0,VALID,25.2592,VALID,359,VALID,0.348828,
2009-12-27, 00:43:05,VALID,1002.19,VALID,0,VALID,91.5008,VALID,0,VALID,25.3,VALID,355,VALID,0.30625,
2009-12-27, 00:44:05,VALID,1002.17,VALID,0,VALID,91.394,VALID,0.100563,VALID,25.3195,VALID,346,VALID,0,
2009-12-27, 00:45:05,VALID,1002.19,VALID,0,VALID,91.2109,VALID,0,VALID,25.337,VALID,346,VALID,0,
2009-12-27, 00:46:05,VALID,1002.16,VALID,0,VALID,90.8447,VALID,0,VALID,25.3955,VALID,345,VALID,0,
2009-12-27, 00:47:05,VALID,1002.15,VALID,0,VALID,90.6006,VALID,0,VALID,25.4558,VALID,345,VALID,0,
2009-12-27, 00:48:05,VALID,1002.12,VALID,0,VALID,90.4862,VALID,0,VALID,25.4344,VALID,346,VALID,0,
2009-12-27, 00:49:05,VALID,1002.1,VALID,0,VALID,90.4022,VALID,0,VALID,25.4558,VALID,349,VALID,0,
2009-12-27, 00:50:05,VALID,1002.07,VALID,0,VALID,90.4556,VALID,0,VALID,25.4149,VALID,358,VALID,0,
2009-12-27, 00:51:05,VALID,1002.06,VALID,0,VALID,90.4938,VALID,0,VALID,25.3955,VALID,358,VALID,0,
2009-12-27, 00:52:05,VALID,1002.03,VALID,0,VALID,90.4404,VALID,0,VALID,25.3955,VALID,358,VALID,0,
2009-12-27, 00:53:05,VALID,1002,VALID,0,VALID,90.4556,VALID,0,VALID,25.376,VALID,358,VALID,0,
2009-12-27, 00:54:05,VALID,1002,VALID,0,VALID,90.509,VALID,0,VALID,25.3955,VALID,4,VALID,0.596094,
2009-12-27, 00:55:05,VALID,1001.94,VALID,0,VALID,90.3641,VALID,0,VALID,25.4149,VALID,358,VALID,0.554297,
2009-12-27, 00:56:05,VALID,1001.96,VALID,0,VALID,90.2115,VALID,0,VALID,25.4344,VALID,5,VALID,0.699219,
2009-12-27, 00:57:05,VALID,1001.97,VALID,0,VALID,90.0818,VALID,0,VALID,25.4753,VALID,8,VALID,0.483984,
2009-12-27, 00:58:05,VALID,1001.94,VALID,0,VALID,89.8453,VALID,0,VALID,25.5337,VALID,360,VALID,0.321484,
2009-12-27, 00:59:05,VALID,1001.94,VALID,0,VALID,89.6622,VALID,0,VALID,25.5532,VALID,346,VALID,0.535547,
2009-12-27, 01:00:05,VALID,1001.94,VALID,0,VALID,89.4563,VALID,0.100563,VALID,25.5707,VALID,346,VALID,0.43125,
2009-12-27, 01:01:05,VALID,1001.95,VALID,0,VALID,89.3037,VALID,0,VALID,25.5902,VALID,354,VALID,0.519531,
2009-12-27, 01:02:05,VALID,1001.93,VALID,0,VALID,89.0901,VALID,0,VALID,25.6311,VALID,337,VALID,0.346875,
2009-12-27, 01:03:05,VALID,1001.94,VALID,0,VALID,88.8688,VALID,0,VALID,25.6292,VALID,324,VALID,0.530078,
2009-12-27, 01:04:05,VALID,1001.91,VALID,0,VALID,88.8459,VALID,0,VALID,25.6486,VALID,343,VALID,1.09414,
2009-12-27, 01:05:05,VALID,1001.89,VALID,0,VALID,88.6552,VALID,0,VALID,25.6681,VALID,2,VALID,0.74375,
2009-12-27, 01:06:05,VALID,1001.86,VALID,0,VALID,88.5408,VALID,0,VALID,25.7071,VALID,358,VALID,0.889063,
2009-12-27, 01:07:05,VALID,1001.85,VALID,0,VALID,88.4492,VALID,0,VALID,25.748,VALID,353,VALID,0.703125,
2009-12-27, 01:08:05,VALID,1001.86,VALID,0,VALID,88.3729,VALID,0,VALID,25.746,VALID,358,VALID,0.455859,
2009-12-27, 01:09:05,VALID,1001.82,VALID,0,VALID,88.3195,VALID,0,VALID,25.7265,VALID,341,VALID,0.748828,
2009-12-27, 01:10:05,VALID,1001.86,VALID,0,VALID,88.3272,VALID,0,VALID,25.7265,VALID,352,VALID,0.574609,
2009-12-27, 01:11:05,VALID,1001.84,VALID,0,VALID,88.4874,VALID,0,VALID,25.7285,VALID,353,VALID,1.05391,
2009-12-27, 01:12:05,VALID,1001.83,VALID,0,VALID,88.6018,VALID,0,VALID,25.709,VALID,350,VALID,0.903906,
2009-12-27, 01:13:05,VALID,1001.82,VALID,0,VALID,88.762,VALID,0,VALID,25.6486,VALID,353,VALID,0.801562,
2009-12-27, 01:14:05,VALID,1001.81,VALID,0,VALID,88.9451,VALID,0,VALID,25.6311,VALID,348,VALID,0.885156,
2009-12-27, 01:15:05,VALID,1001.78,VALID,0,VALID,89.0138,VALID,0,VALID,25.6311,VALID,355,VALID,0.635156,
2009-12-27, 01:16:05,VALID,1001.79,VALID,0,VALID,89.0977,VALID,0,VALID,25.5902,VALID,351,VALID,0.795703,
2009-12-27, 01:17:05,VALID,1001.79,VALID,0,VALID,89.2503,VALID,0,VALID,25.6311,VALID,340,VALID,1.03555,
2009-12-27, 01:18:05,VALID,1001.76,VALID,0,VALID,88.9756,VALID,0,VALID,25.6895,VALID,341,VALID,0.812109,
2009-12-27, 01:19:05,VALID,1001.8,VALID,0,VALID,88.8612,VALID,0,VALID,25.7285,VALID,19,VALID,0.491016,
2009-12-27, 01:20:05,VALID,1001.79,VALID,0,VALID,88.7315,VALID,0,VALID,25.748,VALID,348,VALID,1.08047,
2009-12-27, 01:21:05,VALID,1001.78,VALID,0,VALID,88.5637,VALID,0,VALID,25.8064,VALID,356,VALID,0.876562,
2009-12-27, 01:22:05,VALID,1001.79,VALID,0,VALID,88.4569,VALID,0,VALID,25.8064,VALID,358,VALID,1.01367,
2009-12-27, 01:23:05,VALID,1001.74,VALID,0,VALID,88.3501,VALID,0,VALID,25.8064,VALID,346,VALID,1.23125,
2009-12-27, 01:24:05,VALID,1001.73,VALID,0,VALID,88.3958,VALID,0,VALID,25.785,VALID,352,VALID,0.967578,
2009-12-27, 01:25:05,VALID,1001.72,VALID,0,VALID,88.3806,VALID,0,VALID,25.8044,VALID,336,VALID,0.464844,
2009-12-27, 01:26:05,VALID,1001.7,VALID,0,VALID,88.434,VALID,0,VALID,25.8064,VALID,347,VALID,0.530078,
2009-12-27, 01:27:05,VALID,1001.69,VALID,0,VALID,88.5942,VALID,0,VALID,25.7655,VALID,343,VALID,0.237891,
2009-12-27, 01:28:05,VALID,1001.65,VALID,0,VALID,88.6857,VALID,0,VALID,25.7674,VALID,344,VALID,0.900391,
2009-12-27, 01:29:05,VALID,1001.66,VALID,0,VALID,88.7086,VALID,0,VALID,25.7674,VALID,353,VALID,0.149219,
2009-12-27, 01:30:05,VALID,1001.72,VALID,0,VALID,88.7162,VALID,0,VALID,25.7674,VALID,353,VALID,0.0640625,
2009-12-27, 01:31:05,VALID,1001.74,VALID,0,VALID,88.8383,VALID,0,VALID,25.748,VALID,354,VALID,0.332812,
2009-12-27, 01:32:05,VALID,1001.76,VALID,0,VALID,88.907,VALID,0,VALID,25.7071,VALID,347,VALID,0.557031,
2009-12-27, 01:33:05,VALID,1001.77,VALID,0,VALID,88.9756,VALID,0,VALID,25.7285,VALID,356,VALID,0.549609,
2009-12-27, 01:34:05,VALID,1001.78,VALID,0,VALID,89.0138,VALID,0,VALID,25.6876,VALID,356,VALID,0.497656,
2009-12-27, 01:35:05,VALID,1001.83,VALID,0,VALID,89.0519,VALID,0,VALID,25.6895,VALID,335,VALID,0.745703,
2009-12-27, 01:36:05,VALID,1001.83,VALID,0,VALID,89.1053,VALID,0,VALID,25.67,VALID,352,VALID,0.473828,
2009-12-27, 01:37:05,VALID,1001.85,VALID,0,VALID,89.174,VALID,0,VALID,25.6506,VALID,4,VALID,0.917578,
2009-12-27, 01:38:05,VALID,1001.86,VALID,0,VALID,89.2808,VALID,0,VALID,25.6116,VALID,360,VALID,0.643359,
2009-12-27, 01:39:05,VALID,1001.88,VALID,0,VALID,89.3723,VALID,0,VALID,25.5921,VALID,340,VALID,0.607422,
2009-12-27, 01:40:05,VALID,1001.87,VALID,0,VALID,89.502,VALID,0,VALID,25.5123,VALID,340,VALID,0.512891,
2009-12-27, 01:41:05,VALID,1001.86,VALID,0,VALID,89.6775,VALID,0,VALID,25.4948,VALID,347,VALID,0.896875,
2009-12-27, 01:42:05,VALID,1001.85,VALID,0,VALID,89.8682,VALID,0,VALID,25.4753,VALID,341,VALID,0,
2009-12-27, 01:43:05,VALID,1001.89,VALID,0,VALID,90.0055,VALID,0,VALID,25.4753,VALID,350,VALID,0.258203,
2009-12-27, 01:44:05,VALID,1001.84,VALID,0,VALID,90.1123,VALID,0,VALID,25.4149,VALID,344,VALID,0.595703,
2009-12-27, 01:45:05,VALID,1001.83,VALID,0,VALID,90.181,VALID,0,VALID,25.4363,VALID,305,VALID,0.435156,
2009-12-27, 01:46:05,VALID,1001.84,VALID,0,VALID,90.2802,VALID,0,VALID,25.4169,VALID,359,VALID,0.371875,
2009-12-27, 01:47:05,VALID,1001.8,VALID,0,VALID,90.3565,VALID,0,VALID,25.4169,VALID,358,VALID,0.469141,
2009-12-27, 01:48:05,VALID,1001.78,VALID,0,VALID,90.4633,VALID,0,VALID,25.3974,VALID,357,VALID,0.579297,
2009-12-27, 01:49:05,VALID,1001.76,VALID,0,VALID,90.5243,VALID,0,VALID,25.376,VALID,310,VALID,0.0210938,
2009-12-27, 01:50:05,VALID,1001.75,VALID,0,VALID,90.5396,VALID,0,VALID,25.3974,VALID,289,VALID,0,
2009-12-27, 01:51:05,VALID,1001.74,VALID,0,VALID,90.5396,VALID,0.100563,VALID,25.3955,VALID,282,VALID,0.892187,
2009-12-27, 01:52:05,VALID,1001.73,VALID,0,VALID,90.4556,VALID,0,VALID,25.4149,VALID,311,VALID,0.422266,
2009-12-27, 01:53:05,VALID,1001.74,VALID,0,VALID,90.3488,VALID,0,VALID,25.4558,VALID,296,VALID,0.467969,
2009-12-27, 01:54:05,VALID,1001.77,VALID,0,VALID,90.2039,VALID,0,VALID,25.4539,VALID,310,VALID,0.740625,
2009-12-27, 01:55:05,VALID,1001.77,VALID,0,VALID,90.036,VALID,0,VALID,25.4734,VALID,293,VALID,0.744141,
2009-12-27, 01:56:05,VALID,1001.79,VALID,0,VALID,89.914,VALID,0,VALID,25.5142,VALID,287,VALID,1.12969,
2009-12-27, 01:57:05,VALID,1001.81,VALID,0,VALID,89.8148,VALID,0,VALID,25.5337,VALID,296,VALID,0.735937,
2009-12-27, 01:58:05,VALID,1001.82,VALID,0,VALID,89.7538,VALID,0,VALID,25.5337,VALID,311,VALID,0.554297,
2009-12-27, 01:59:05,VALID,1001.82,VALID,0,VALID,89.7233,VALID,0,VALID,25.5337,VALID,291,VALID,0.774219,
2009-12-27, 02:00:04,VALID,1001.82,VALID,0,VALID,89.6699,VALID,0,VALID,25.5142,VALID,289,VALID,0.7875,
2009-12-27, 02:01:04,VALID,1001.8,VALID,0,VALID,89.6927,VALID,0,VALID,25.4928,VALID,292,VALID,0.230859,
2009-12-27, 02:02:04,VALID,1001.79,VALID,0,VALID,89.7385,VALID,0,VALID,25.4928,VALID,356,VALID,0.521094,
2009-12-27, 02:03:04,VALID,1001.8,VALID,0,VALID,89.7996,VALID,0,VALID,25.4734,VALID,354,VALID,0.537891,
2009-12-27, 02:04:04,VALID,1001.8,VALID,0,VALID,89.8682,VALID,0,VALID,25.4539,VALID,351,VALID,0.0105469,
2009-12-27, 02:05:04,VALID,1001.82,VALID,0,VALID,89.9521,VALID,0,VALID,25.4149,VALID,351,VALID,0,
2009-12-27, 02:06:04,VALID,1001.8,VALID,0,VALID,90.0589,VALID,0,VALID,25.3955,VALID,351,VALID,0,
2009-12-27, 02:07:04,VALID,1001.83,VALID,0,VALID,90.1734,VALID,0,VALID,25.376,VALID,351,VALID,0,
2009-12-27, 02:08:04,VALID,1001.84,VALID,0,VALID,90.2878,VALID,0,VALID,25.3565,VALID,293,VALID,0.216406,
2009-12-27, 02:09:04,VALID,1001.87,VALID,0,VALID,90.3946,VALID,0,VALID,25.3584,VALID,287,VALID,0.13125,
2009-12-27, 02:10:04,VALID,1001.87,VALID,0,VALID,90.4709,VALID,0,VALID,25.3195,VALID,295,VALID,0.387891,
2009-12-27, 02:11:04,VALID,1001.87,VALID,0,VALID,90.5853,VALID,0,VALID,25.3195,VALID,356,VALID,0.522266,
2009-12-27, 02:12:04,VALID,1001.89,VALID,0,VALID,90.654,VALID,0,VALID,25.3195,VALID,357,VALID,0.0855469,
2009-12-27, 02:13:04,VALID,1001.86,VALID,0,VALID,90.6692,VALID,0,VALID,25.2806,VALID,357,VALID,0.197266,
2009-12-27, 02:14:04,VALID,1001.88,VALID,0,VALID,90.7913,VALID,0,VALID,25.2786,VALID,285,VALID,0.630078,
2009-12-27, 02:15:04,VALID,1001.89,VALID,0,VALID,90.8295,VALID,0,VALID,25.2806,VALID,298,VALID,0.348828,
2009-12-27, 02:16:04,VALID,1001.88,VALID,0,VALID,90.86,VALID,0,VALID,25.2806,VALID,290,VALID,0.724219,
2009-12-27, 02:17:04,VALID,1001.89,VALID,0,VALID,90.9057,VALID,0,VALID,25.2611,VALID,289,VALID,0.695703,
2009-12-27, 02:18:04,VALID,1001.88,VALID,0,VALID,90.9134,VALID,0,VALID,25.2416,VALID,345,VALID,0,
2009-12-27, 02:19:04,VALID,1001.88,VALID,0,VALID,90.8981,VALID,0,VALID,25.2007,VALID,295,VALID,0,
2009-12-27, 02:20:04,VALID,1001.91,VALID,0,VALID,91.0049,VALID,0,VALID,25.2027,VALID,298,VALID,0,
2009-12-27, 02:21:04,VALID,1001.9,VALID,0,VALID,91.0583,VALID,0,VALID,25.1832,VALID,299,VALID,0,
2009-12-27, 02:22:04,VALID,1001.92,VALID,0,VALID,91.1728,VALID,0,VALID,25.1637,VALID,335,VALID,0,
2009-12-27, 02:23:04,VALID,1001.88,VALID,0,VALID,91.3024,VALID,0,VALID,25.1618,VALID,290,VALID,0,
2009-12-27, 02:24:04,VALID,1001.86,VALID,0,VALID,91.3558,VALID,0,VALID,25.1618,VALID,276,VALID,0,
2009-12-27, 02:25:04,VALID,1001.88,VALID,0,VALID,91.394,VALID,0.100563,VALID,25.1618,VALID,276,VALID,0,
2009-12-27, 02:26:04,VALID,1001.86,VALID,0,VALID,91.4474,VALID,0,VALID,25.1618,VALID,290,VALID,0,
2009-12-27, 02:27:04,VALID,1001.85,VALID,0,VALID,91.455,VALID,0,VALID,25.1618,VALID,293,VALID,0,
2009-12-27, 02:28:04,VALID,1001.85,VALID,0,VALID,91.4321,VALID,0,VALID,25.1813,VALID,294,VALID,0,
2009-12-27, 02:29:04,VALID,1001.84,VALID,0,VALID,91.4169,VALID,0,VALID,25.1832,VALID,294,VALID,0,
2009-12-27, 02:30:04,VALID,1001.85,VALID,0,VALID,91.3635,VALID,0,VALID,25.1813,VALID,294,VALID,0,
2009-12-27, 02:31:04,VALID,1001.84,VALID,0,VALID,91.2567,VALID,0,VALID,25.1832,VALID,335,VALID,0,
2009-12-27, 02:32:04,VALID,1001.86,VALID,0,VALID,91.1499,VALID,0,VALID,25.1229,VALID,335,VALID,0,
2009-12-27, 02:33:04,VALID,1001.83,VALID,0,VALID,91.2033,VALID,0,VALID,25.0858,VALID,335,VALID,0,
2009-12-27, 02:34:04,VALID,1001.82,VALID,0,VALID,91.3024,VALID,0,VALID,25.006,VALID,335,VALID,0,
2009-12-27, 02:35:04,VALID,1001.79,VALID,0,VALID,91.4626,VALID,0,VALID,24.9671,VALID,335,VALID,0,
2009-12-27, 02:36:04,VALID,1001.77,VALID,0,VALID,91.6457,VALID,0,VALID,24.9476,VALID,335,VALID,0,
2009-12-27, 02:37:04,VALID,1001.73,VALID,0,VALID,91.7297,VALID,0,VALID,24.8892,VALID,335,VALID,0,
2009-12-27, 02:38:04,VALID,1001.68,VALID,0,VALID,91.8746,VALID,0,VALID,24.8716,VALID,335,VALID,0,
2009-12-27, 02:39:04,VALID,1001.63,VALID,0,VALID,92.0272,VALID,0,VALID,24.8327,VALID,335,VALID,0,
2009-12-27, 02:40:04,VALID,1001.59,VALID,0,VALID,92.1569,VALID,0,VALID,24.8132,VALID,335,VALID,0,
2009-12-27, 02:41:04,VALID,1001.55,VALID,0,VALID,92.3323,VALID,0,VALID,24.7724,VALID,335,VALID,0,
2009-12-27, 02:42:04,VALID,1001.51,VALID,0,VALID,92.3705,VALID,0,VALID,24.7335,VALID,335,VALID,0,
2009-12-27, 02:43:04,VALID,1001.53,VALID,0,VALID,92.4086,VALID,0,VALID,24.6945,VALID,335,VALID,0,
2009-12-27, 02:44:04,VALID,1001.51,VALID,0,VALID,92.4544,VALID,0,VALID,24.6556,VALID,335,VALID,0,
2009-12-27, 02:45:04,VALID,1001.55,VALID,0,VALID,92.5002,VALID,0,VALID,24.638,VALID,335,VALID,0,
2009-12-27, 02:46:04,VALID,1001.57,VALID,0,VALID,92.5917,VALID,0,VALID,24.6185,VALID,335,VALID,0,
2009-12-27, 02:47:04,VALID,1001.57,VALID,0,VALID,92.7824,VALID,0,VALID,24.5972,VALID,335,VALID,0,
2009-12-27, 02:48:04,VALID,1001.55,VALID,0,VALID,92.935,VALID,0,VALID,24.5972,VALID,335,VALID,0,
2009-12-27, 02:49:04,VALID,1001.58,VALID,0,VALID,93.0037,VALID,0.100563,VALID,24.5972,VALID,335,VALID,0,
2009-12-27, 02:50:04,VALID,1001.57,VALID,0,VALID,93.1181,VALID,0,VALID,24.5972,VALID,332,VALID,0,
2009-12-27, 02:51:04,VALID,1001.57,VALID,0,VALID,93.2325,VALID,0,VALID,24.6166,VALID,312,VALID,0,
2009-12-27, 02:52:04,VALID,1001.57,VALID,0,VALID,93.2707,VALID,0.100563,VALID,24.6574,VALID,311,VALID,0,
2009-12-27, 02:53:04,VALID,1001.57,VALID,0,VALID,93.2478,VALID,0,VALID,24.6556,VALID,312,VALID,0,
2009-12-27, 02:54:04,VALID,1001.56,VALID,0,VALID,93.2707,VALID,0,VALID,24.6556,VALID,312,VALID,0,
2009-12-27, 02:55:04,VALID,1001.57,VALID,0,VALID,93.2859,VALID,0,VALID,24.675,VALID,312,VALID,0,
2009-12-27, 02:56:04,VALID,1001.58,VALID,0,VALID,93.2859,VALID,0,VALID,24.675,VALID,312,VALID,0,
2009-12-27, 02:57:04,VALID,1001.59,VALID,0,VALID,93.2631,VALID,0,VALID,24.7159,VALID,312,VALID,0,
2009-12-27, 02:58:04,VALID,1001.62,VALID,0,VALID,93.2249,VALID,0,VALID,24.7353,VALID,312,VALID,0,
2009-12-27, 02:59:04,VALID,1001.65,VALID,0,VALID,93.1868,VALID,0,VALID,24.7353,VALID,326,VALID,0,
2009-12-27, 03:00:04,VALID,1001.66,VALID,0,VALID,93.1029,VALID,0,VALID,24.714,VALID,333,VALID,0,
2009-12-27, 03:01:04,VALID,1001.67,VALID,0,VALID,92.9274,VALID,0,VALID,24.7353,VALID,348,VALID,0,
2009-12-27, 03:02:04,VALID,1001.68,VALID,0,VALID,92.6146,VALID,0,VALID,24.6574,VALID,355,VALID,0,
2009-12-27, 03:03:04,VALID,1001.7,VALID,0,VALID,92.5002,VALID,0,VALID,24.599,VALID,356,VALID,0,
2009-12-27, 03:04:04,VALID,1001.73,VALID,0,VALID,92.401,VALID,0,VALID,24.4998,VALID,356,VALID,0,
2009-12-27, 03:05:04,VALID,1001.72,VALID,0,VALID,92.3934,VALID,0,VALID,24.4414,VALID,356,VALID,0,
2009-12-27, 03:06:04,VALID,1001.71,VALID,0,VALID,92.5688,VALID,0,VALID,24.4238,VALID,356,VALID,0,
2009-12-27, 03:07:04,VALID,1001.7,VALID,0,VALID,92.6833,VALID,0,VALID,24.3636,VALID,356,VALID,0,
2009-12-27, 03:08:04,VALID,1001.71,VALID,0,VALID,92.9426,VALID,0,VALID,24.4043,VALID,356,VALID,0,
2009-12-27, 03:09:04,VALID,1001.69,VALID,0,VALID,93.1105,VALID,0,VALID,24.3636,VALID,356,VALID,0,
2009-12-27, 03:10:04,VALID,1001.67,VALID,0,VALID,93.1639,VALID,0,VALID,24.3441,VALID,356,VALID,0,
2009-12-27, 03:11:04,VALID,1001.66,VALID,0,VALID,93.2097,VALID,0,VALID,24.3052,VALID,356,VALID,0,
2009-12-27, 03:12:04,VALID,1001.68,VALID,0,VALID,93.2249,VALID,0,VALID,24.2875,VALID,356,VALID,0,
2009-12-27, 03:13:04,VALID,1001.65,VALID,0,VALID,93.2783,VALID,0.100563,VALID,24.2273,VALID,356,VALID,0,
2009-12-27, 03:14:04,VALID,1001.67,VALID,0,VALID,93.3546,VALID,0,VALID,24.2291,VALID,356,VALID,0,
2009-12-27, 03:15:04,VALID,1001.68,VALID,0,VALID,93.5072,VALID,0,VALID,24.2078,VALID,356,VALID,0,
2009-12-27, 03:16:04,VALID,1001.7,VALID,0,VALID,93.5453,VALID,0,VALID,24.1902,VALID,356,VALID,0,
2009-12-27, 03:17:04,VALID,1001.71,VALID,0,VALID,93.6598,VALID,0,VALID,24.2097,VALID,356,VALID,0,
2009-12-27, 03:18:04,VALID,1001.75,VALID,0,VALID,93.8047,VALID,0,VALID,24.2078,VALID,356,VALID,0,
2009-12-27, 03:19:04,VALID,1001.77,VALID,0,VALID,93.8581,VALID,0,VALID,24.2291,VALID,356,VALID,0,
2009-12-27, 03:20:04,VALID,1001.78,VALID,0,VALID,93.8657,VALID,0,VALID,24.1884,VALID,356,VALID,0,
2009-12-27, 03:21:04,VALID,1001.79,VALID,0,VALID,93.9649,VALID,0,VALID,24.2078,VALID,356,VALID,0,
2009-12-27, 03:22:04,VALID,1001.78,VALID,0,VALID,94.0107,VALID,0.100563,VALID,24.2486,VALID,356,VALID,0,
2009-12-27, 03:23:04,VALID,1001.8,VALID,0,VALID,94.0031,VALID,0.100563,VALID,24.2078,VALID,356,VALID,0,
2009-12-27, 03:24:04,VALID,1001.81,VALID,0,VALID,94.0031,VALID,0,VALID,24.1884,VALID,356,VALID,0,
2009-12-27, 03:25:04,VALID,1001.78,VALID,0,VALID,93.9878,VALID,0,VALID,24.1494,VALID,356,VALID,0,
2009-12-27, 03:26:04,VALID,1001.74,VALID,0,VALID,93.942,VALID,0.100563,VALID,24.13,VALID,356,VALID,0,
2009-12-27, 03:27:04,VALID,1001.72,VALID,0,VALID,93.9268,VALID,0,VALID,24.091,VALID,356,VALID,0,
2009-12-27, 03:28:04,VALID,1001.73,VALID,0,VALID,93.9344,VALID,0,VALID,24.0716,VALID,356,VALID,0,
2009-12-27, 03:29:04,VALID,1001.69,VALID,0,VALID,93.9497,VALID,0,VALID,24.0539,VALID,356,VALID,0,
2009-12-27, 03:30:04,VALID,1001.7,VALID,0,VALID,93.9649,VALID,0,VALID,24.0326,VALID,356,VALID,0,
2009-12-27, 03:31:04,VALID,1001.71,VALID,0,VALID,94.0336,VALID,0,VALID,24.0734,VALID,356,VALID,0,
2009-12-27, 03:32:04,VALID,1001.71,VALID,0,VALID,94.0412,VALID,0,VALID,24.0539,VALID,356,VALID,0,
2009-12-27, 03:33:04,VALID,1001.73,VALID,0,VALID,94.1022,VALID,0,VALID,24.0734,VALID,356,VALID,0,
2009-12-27, 03:34:04,VALID,1001.75,VALID,0,VALID,94.1709,VALID,0,VALID,24.1123,VALID,356,VALID,0,
2009-12-27, 03:35:04,VALID,1001.74,VALID,0,VALID,94.2396,VALID,0,VALID,24.1105,VALID,356,VALID,0,
2009-12-27, 03:36:04,VALID,1001.75,VALID,0,VALID,94.2777,VALID,0,VALID,24.1513,VALID,356,VALID,0,
2009-12-27, 03:37:04,VALID,1001.77,VALID,0,VALID,94.3006,VALID,0,VALID,24.1707,VALID,356,VALID,0,
2009-12-27, 03:38:04,VALID,1001.77,VALID,0,VALID,94.3082,VALID,0,VALID,24.1494,VALID,356,VALID,0,
2009-12-27, 03:39:04,VALID,1001.77,VALID,0,VALID,94.3006,VALID,0,VALID,24.1902,VALID,356,VALID,0,
2009-12-27, 03:40:04,VALID,1001.78,VALID,0,VALID,94.293,VALID,0,VALID,24.2115,VALID,356,VALID,0,
2009-12-27, 03:41:04,VALID,1001.74,VALID,0,VALID,94.2701,VALID,0,VALID,24.1707,VALID,356,VALID,0,
2009-12-27, 03:42:04,VALID,1001.76,VALID,0,VALID,94.2243,VALID,0,VALID,24.1318,VALID,356,VALID,0,
2009-12-27, 03:43:04,VALID,1001.73,VALID,0,VALID,94.1556,VALID,0,VALID,24.1318,VALID,356,VALID,0,
2009-12-27, 03:44:04,VALID,1001.76,VALID,0,VALID,94.1785,VALID,0,VALID,24.1513,VALID,356,VALID,0,
2009-12-27, 03:45:04,VALID,1001.75,VALID,0,VALID,94.2396,VALID,0.100563,VALID,24.1689,VALID,356,VALID,0,
2009-12-27, 03:46:04,VALID,1001.77,VALID,0,VALID,94.2472,VALID,0,VALID,24.1884,VALID,356,VALID,0,
2009-12-27, 03:47:04,VALID,1001.78,VALID,0,VALID,94.2701,VALID,0,VALID,24.2273,VALID,356,VALID,0,
2009-12-27, 03:48:04,VALID,1001.78,VALID,0,VALID,94.2777,VALID,0,VALID,24.2078,VALID,356,VALID,0,
2009-12-27, 03:49:04,VALID,1001.78,VALID,0,VALID,94.3311,VALID,0.100563,VALID,24.2662,VALID,346,VALID,0,
2009-12-27, 03:50:04,VALID,1001.79,VALID,0,VALID,94.3311,VALID,0,VALID,24.2468,VALID,346,VALID,0,
2009-12-27, 03:51:04,VALID,1001.76,VALID,0,VALID,94.2701,VALID,0,VALID,24.2468,VALID,346,VALID,0,